« Back
NWS Peachtree City, Ga » Text Product » GA Regional Weather Roundup


Printer-friendly Version
Current Version              Previous Versions:   1  2  3  4  5  6  7  8  9  

Regional Weather Roundup

281
ASUS42 KFFC 281103
RWRGA
WEATHER ROUNDUP FOR GEORGIA
NATIONAL WEATHER SERVICE PEACHTREE CITY GA
700 AM EDT TUE JUN 28 2016

NOTE: "FAIR" INDICATES FEW OR NO CLOUDS BELOW 12,000 FEET WITH NO
SIGNIFICANT WEATHER AND/OR OBSTRUCTIONS TO VISIBILITY.

* = USE WITH CAUTION. THE STATIONS MARKED WITH AN ASTERISK MAY NOT
REPORT WEATHER SUCH AS PRECIPITATION, FOG, OR THUNDER AND ARE NOT
QUALITY CONTROLLED BY NWS.

THE REMARK "TC" DENOTES TEMPERATURE READING IN DEGREES CELSIUS.

GAZ001>058-281200-
NORTH GEORGIA

CITY           SKY/WX    TMP DP  RH WIND       PRES   REMARKS
ATLANTA        PTCLDY    73  69  87 NW3       30.01R
ATHENS         CLEAR     70  70 100 CALM      30.01R
CHAMBLEE       CLOUDY    74  69  85 CALM      30.01R
PEACHTREE CITY CLEAR     69  68  96 CALM      30.02R
ROME           CLOUDY    73  71  93 CALM      30.01R
WEST ATLANTA   CLOUDY    72  69  90 CALM      30.01R
GAINESVILLE    PTCLDY    71  69  93 CALM      30.04R
CARTERSVILLE   CLOUDY    71  70  96 CALM      30.02R FOG


CITY           SKY/WX    TMP DP  RH WIND       PRES   REMARKS
DALTON*        CLOUDY    72  72 100 N6        30.02R
LAWRENCEVILLE* FOG       72  70  94 CALM      30.02  VSB 1/2
MARIETTA       MOCLDY    73  70  89 CALM      30.01S
KENNESAW*      MOCLDY    72  68  88 CALM      30.00
CANTON*        CLOUDY    70  66  88 CALM      30.03S
$$

GAZ059>098-102>109-281200-
CENTRAL GEORGIA

CITY           SKY/WX    TMP DP  RH WIND       PRES   REMARKS
AUGUSTA-BUSH   CLEAR     74  73  97 CALM      29.97R
AUGUSTA-DANIEL PTCLDY    77  73  87 CALM      29.99R
COLUMBUS       CLEAR     73  68  84 N6        29.99R
MACON          CLEAR     73  70  90 N6        29.98R
ROBINS AFB     CLEAR     73  71  95 SE2       29.97R


CITY           SKY/WX    TMP DP  RH WIND       PRES   REMARKS
LAGRANGE*      CLEAR     71  71 100 CALM      30.01R
SYLVANIA*      CLEAR     76  73  93 CALM      29.99S FOG
MILLEDGEVILLE* CLEAR     72  72 100 CALM      29.98R
$$

GAZ099>101-110>166-281200-
SOUTH GEORGIA

CITY           SKY/WX    TMP DP  RH WIND       PRES   REMARKS
SAVANNAH       PTCLDY    74  72  93 CALM      29.98S
VALDOSTA       CLEAR     73  72  96 CALM      29.99R
ALMA           CLEAR     72  71  97 SE5       29.98R FOG
ST SIMONS      PTCLDY    75  73  93 W5        29.97S
FT STEWART     CLEAR     72  70  94 CALM      29.96R
ALBANY         CLEAR     74  72  93 CALM      30.00R
HUNTER AFB     CLEAR     73  73 100 CALM      29.96R
MOODY AFB      CLEAR     74  71  91 SW3       29.98R
BRUNSWICK        N/A     72  72 100 CALM      29.98S FOG


CITY           SKY/WX    TMP DP  RH WIND       PRES   REMARKS
BAINBRIDGE*    CLOUDY    73  72  94 CALM      29.99S
MOULTRIE*      CLEAR     73  72  94 CALM      30.00R FOG
VIDALIA*       CLEAR     73  70  88 CALM      29.99R
WAYCROSS*      CLEAR     76  75  97 SW3       29.99R
DOUGLAS*       CLEAR     73  72  94 CALM      30.00R
$$




USA.gov is the U.S. government's official web portal to all federal, state and local government web resources and services.